DW6536 Weather Reports


Display with metric or nautical units.
time (UTC)temp
F
wind
direction
speed
MPH
gust
MPH
rain 1hr
in
rain 24hr
in
rain mn
in
humidity
%
barometer
mb
20260906040033 85 158 1.0 0.0 0.00 0.00 0.00 67 1010.2
20260906034525 85 140 1.0 0.0 0.00 0.00 0.00 66 1010.4
20260906033024 86 149 1.0 0.0 0.00 0.00 0.00 65 1010.2
20260906031555 86 131 2.0 0.0 0.00 0.00 0.00 63 1010.0
20260906030024 87 133 2.0 0.0 0.00 0.00 0.00 62 1009.9
20260906024548 88 98 2.0 0.0 0.00 0.00 0.00 61 1009.5
20260906023024 88 114 1.0 0.0 0.00 0.00 0.00 59 1009.2
20260906021523 89 124 2.0 0.0 0.00 0.00 0.00 58 1008.7
20260906020024 89 77 2.0 0.0 0.00 0.00 0.00 57 1008.4
20260906014522 90 121 2.0 0.0 0.00 0.00 0.00 57 1008.3
20260906013021 91 156 3.0 0.0 0.00 0.00 0.00 56 1008.1
20260906011520 92 321 3.0 0.0 0.00 0.00 0.00 54 1008.1
20260906010039 93 118 2.0 0.0 0.00 0.00 0.00 51 1007.9
20260906004520 93 171 2.0 0.0 0.00 0.00 0.00 49 1007.9
20260906003019 94 68 1.0 0.0 0.00 0.00 0.00 48 1007.9
20260906001522 96 70 1.0 0.0 0.00 0.00 0.00 46 1007.8
20260906000022 96 145 1.0 0.0 0.00 0.00 0.00 43 1007.8
20260905234518 97 110 0.0 0.0 0.00 0.00 0.00 42 1007.7
20260905233017 98 156 1.0 0.0 0.00 0.00 0.00 41 1007.6
20260905231517 98 351 1.0 0.0 0.00 0.00 0.00 40 1007.6
20260905230030 99 54 1.0 0.0 0.00 0.00 0.00 39 1007.6
20260905224519 99 111 1.0 0.0 0.00 0.00 0.00 39 1007.6
20260905223017 99 167 1.0 0.0 0.00 0.00 0.00 39 1007.6
20260905221513 99 104 1.0 0.0 0.00 0.00 0.00 39 1007.8
20260905220016 97 122 1.0 0.0 0.00 0.00 0.00 41 1008.0
20260905214512 98 108 1.0 0.0 0.00 0.00 0.00 40 1007.9
20260905213011 97 56 1.0 0.0 0.00 0.00 0.00 41 1007.9
20260905211529 99 139 1.0 0.0 0.00 0.00 0.00 40 1008.2
20260905210010 101 135 2.0 0.0 0.00 0.00 0.00 39 1008.3
20260905204505 100 144 1.0 0.0 0.00 0.00 0.00 39 1008.6
20260905203003 99 120 2.0 0.0 0.00 0.00 0.00 40 1008.7
20260905201606 98 250 1.0 0.0 0.00 0.00 0.00 41 1009.0
20260905200117 98 252 2.0 0.0 0.00 0.00 0.00 40 1009.4
20260905194555 98 124 2.0 0.0 0.00 0.00 0.00 40 1009.6
20260905193053 98 153 2.0 0.0 0.00 0.00 0.00 42 1009.8
20260905191550 97 138 2.0 0.0 0.00 0.00 0.00 42 1010.2
20260905190047 97 104 2.0 0.0 0.00 0.00 0.00 41 1010.4
20260905184545 96 225 2.0 0.0 0.00 0.00 0.00 39 1010.7
20260905183045 96 45 2.0 0.0 0.00 0.00 0.00 45 1011.0
20260905181542 95 100 2.0 0.0 0.00 0.00 0.00 49 1011.1
20260905180040 95 199 2.0 0.0 0.00 0.00 0.00 46 1011.5
20260905174543 95 223 2.0 0.0 0.00 0.00 0.00 48 1011.8
20260905173054 94 54 2.0 0.0 0.00 0.00 0.00 50 1011.9
20260905171536 93 131 2.0 0.0 0.00 0.00 0.00 51 1012.1
20260905170031 92 148 1.0 0.0 0.00 0.00 0.00 55 1012.1
20260905164530 92 197 2.0 0.0 0.00 0.00 0.00 56 1012.4
20260905163027 91 322 2.0 0.0 0.00 0.00 0.00 60 1012.3
20260905161528 91 180 2.0 0.0 0.00 0.00 0.00 61 1012.2
20260905160022 90 160 2.0 0.0 0.00 0.00 0.00 62 1012.3
20260905154519 88 303 1.0 0.0 0.00 0.00 0.00 65 1012.3
20260905153018 88 191 1.0 0.0 0.00 0.00 0.00 66 1012.2
20260905151514 86 235 1.0 0.0 0.00 0.00 0.00 71 1012.2
20260905150010 85 209 1.0 0.0 0.00 0.00 0.00 73 1012.4
20260905144506 83 197 2.0 0.0 0.00 0.00 0.00 77 1012.3
20260905143003 82 251 1.0 0.0 0.00 0.00 0.00 80 1012.3
20260905141603 81 153 1.0 0.0 0.00 0.00 0.00 83 1012.3
20260905140100 79 219 1.0 0.0 0.00 0.00 0.00 86 1012.1
20260905134602 79 189 1.0 0.0 0.00 0.00 0.00 87 1012.2
20260905133058 78 145 1.0 0.0 0.00 0.00 0.00 91 1011.9
20260905131553 77 167 0.0 0.0 0.00 0.00 0.00 92 1011.7
20260905130053 75 115 0.0 0.0 0.00 0.00 0.00 92 1011.5
20260905124551 75 115 0.0 0.0 0.00 0.00 0.00 91 1011.4
20260905123049 75 115 0.0 0.0 0.00 0.00 0.00 91 1011.4
20260905121549 75 115 0.0 0.0 0.00 0.00 0.00 90 1011.2
20260905120047 75 115 0.0 0.0 0.00 0.00 0.00 90 1010.9
20260905114546 75 115 0.0 0.0 0.00 0.00 0.00 90 1010.9
20260905113045 75 115 0.0 0.0 0.00 0.00 0.00 89 1010.9
20260905111543 76 115 0.0 0.0 0.00 0.00 0.00 89 1010.8
20260905110055 76 115 0.0 0.0 0.00 0.00 0.00 89 1010.7
20260905104541 76 115 0.0 0.0 0.00 0.00 0.00 89 1010.7
20260905103048 76 115 0.0 0.0 0.00 0.00 0.00 88 1010.6
20260905101551 77 115 0.0 0.0 0.00 0.00 0.00 87 1010.7
20260905100037 77 115 0.0 0.0 0.00 0.00 0.00 87 1010.6
20260905094536 77 115 0.0 0.0 0.00 0.00 0.00 87 1010.6
20260905093034 78 111 0.0 0.0 0.00 0.00 0.00 86 1010.4
20260905091533 78 209 0.0 0.0 0.00 0.00 0.00 86 1010.6
20260905090033 78 200 0.0 0.0 0.00 0.00 0.00 86 1010.6
20260905084530 78 201 0.0 0.0 0.00 0.00 0.00 85 1010.7
20260905083028 79 124 0.0 0.0 0.00 0.00 0.00 84 1010.6
20260905081529 79 201 0.0 0.0 0.00 0.00 0.00 84 1010.7
20260905080026 79 168 0.0 0.0 0.00 0.00 0.00 84 1010.8
20260905074532 79 211 1.0 0.0 0.00 0.00 0.00 84 1010.9
20260905073022 79 164 1.0 0.0 0.00 0.00 0.00 83 1011.0
20260905071521 80 133 0.0 0.0 0.00 0.00 0.00 82 1011.2
20260905070020 80 143 1.0 0.0 0.00 0.00 0.00 81 1011.2
20260905064518 80 228 1.0 0.0 0.00 0.00 0.00 80 1011.1
20260905063018 80 132 1.0 0.0 0.00 0.00 0.00 80 1011.1
20260905061516 80 161 1.0 0.0 0.00 0.00 0.00 79 1011.3
20260905060015 80 188 0.0 0.0 0.00 0.00 0.00 78 1011.3
20260905054516 80 137 0.0 0.0 0.00 0.00 0.00 77 1011.3
20260905053013 80 143 1.0 0.0 0.00 0.00 0.00 77 1011.2
20260905051513 81 136 1.0 0.0 0.00 0.00 0.00 76 1011.4
20260905050009 81 131 1.0 0.0 0.00 0.00 0.00 75 1011.4
20260905044510 81 163 1.0 0.0 0.00 0.00 0.00 74 1011.4
20260905043007 82 134 1.0 0.0 0.00 0.00 0.00 73 1011.3
20260905041508 82 172 1.0 0.0 0.00 0.00 0.00 73 1011.4